This is the latest recevied weather packets stored in our database for station/object KE8DAF-15. If no packets are shown the sender has not sent any weather packets the latest 10 day(s).
| Time | Temp. | Humidity | Pressure | Rain* | Wind** | Luminosity | Snow |
|---|---|---|---|---|---|---|---|
| 1777052379 | 11.67° C | 53% | 994.6 hPa | 0 mm | - | - | - |
| 1777052079 | 12.22° C | 51% | 994.8 hPa | 0 mm | - | - | - |
| 1777051779 | 12.22° C | 51% | 994.6 hPa | 0 mm | - | - | - |
| 1777051479 | 12.22° C | 51% | 994.7 hPa | 0 mm | - | - | - |
| 1777051179 | 12.22° C | 51% | 994.6 hPa | 0 mm | - | - | - |
| 1777050879 | 12.78° C | 51% | 994.6 hPa | 0 mm | - | - | - |
| 1777050579 | 12.78° C | 51% | 995 hPa | 0 mm | - | - | - |
| 1777050279 | 12.78° C | 51% | 995 hPa | 0 mm | - | - | - |
| 1777049979 | 12.78° C | 51% | 995.2 hPa | 0 mm | - | - | - |
| 1777049679 | 12.78° C | 53% | 995.2 hPa | 0 mm | - | - | - |
| 1777049379 | 12.22° C | 51% | 995.3 hPa | 0 mm | - | - | - |
| 1777049079 | 12.22° C | 52% | 995.3 hPa | 0 mm | - | - | - |
| 1777048779 | 12.22° C | 53% | 995.2 hPa | 0 mm | - | - | - |
| 1777048479 | 12.22° C | 54% | 995 hPa | 0 mm | - | - | - |
| 1777048179 | 12.22° C | 53% | 995.2 hPa | 0 mm | - | - | - |
| 1777047879 | 12.22° C | 53% | 995.1 hPa | 0 mm | - | - | - |
| 1777047579 | 11.67° C | 53% | 995.2 hPa | 0 mm | - | - | - |
| 1777047279 | 12.22° C | 52% | 995.2 hPa | 0 mm | - | - | - |
| 1777046979 | 12.22° C | 52% | 995.1 hPa | 0 mm | - | - | - |
| 1777046679 | 11.67° C | 54% | 995 hPa | 0 mm | - | - | - |
| 1777046379 | 11.67° C | 53% | 994.9 hPa | 0 mm | - | - | - |
| 1777046079 | 11.67° C | 52% | 994.8 hPa | 0 mm | - | - | - |
| 1777045779 | 11.67° C | 54% | 994.9 hPa | 0 mm | - | - | - |
| 1777045479 | 11.11° C | 53% | 994.9 hPa | 0 mm | - | - | - |
| 1777045179 | 11.11° C | 54% | 995 hPa | 0 mm | - | - | - |
* Rain latest hour (hover to see other rain measurements)
** Current wind speed in m/s (hover to see current wind gust speed)